| time (UTC) | temp F | wind direction | speed MPH | gust MPH | rain 1hr in | rain 24hr in | rain mn in | humidity % | barometer mb |
| 20260507114030 | 49 | 312 | 0.0 | 0.0 | 0.00 | 0.02 | 0.00 | 83 | 1012.1 |
| 20260507113530 | 50 | 312 | 0.0 | 0.0 | 0.00 | 0.02 | 0.00 | 83 | 1012.0 |
| 20260507113030 | 50 | 312 | 0.0 | 0.0 | 0.00 | 0.02 | 0.00 | 82 | 1012.0 |
| 20260507112530 | 50 | 312 | 0.0 | 0.0 | 0.00 | 0.02 | 0.00 | 81 | 1012.0 |
| 20260507112029 | 50 | 312 | 0.0 | 1.0 | 0.00 | 0.02 | 0.00 | 81 | 1011.9 |
| 20260507111531 | 51 | 312 | 0.0 | 1.0 | 0.00 | 0.02 | 0.00 | 81 | 1011.8 |
| 20260507111033 | 51 | 312 | 0.0 | 1.0 | 0.00 | 0.02 | 0.00 | 81 | 1011.8 |
| 20260507110532 | 51 | 312 | 0.0 | 3.0 | 0.00 | 0.02 | 0.00 | 81 | 1011.7 |
| 20260507110029 | 51 | 312 | 0.0 | 3.0 | 0.00 | 0.02 | 0.00 | 81 | 1011.6 |
| 20260507105529 | 51 | 312 | 0.0 | 2.0 | 0.00 | 0.02 | 0.00 | 81 | 1011.6 |
| 20260507105331 | 51 | 312 | 0.0 | 0.0 | 0.00 | 0.02 | 0.00 | 81 | 1011.6 |
| 20260507104639 | 51 | 312 | 0.0 | 1.0 | 0.00 | 0.02 | 0.00 | 81 | 1011.7 |
| 20260507104616 | 51 | 312 | 0.0 | 1.0 | 0.00 | 0.02 | 0.00 | 81 | 1011.7 |
| 20260507103529 | 51 | 312 | 0.0 | 0.0 | 0.00 | 0.02 | 0.00 | 81 | 1011.7 |
| 20260507103031 | 51 | 312 | 0.0 | 0.0 | 0.00 | 0.02 | 0.00 | 81 | 1011.7 |
| 20260507102529 | 51 | 312 | 0.0 | 0.0 | 0.00 | 0.02 | 0.00 | 81 | 1011.6 |
| 20260507102031 | 51 | 312 | 0.0 | 0.0 | 0.00 | 0.02 | 0.00 | 81 | 1011.5 |
| 20260507101543 | 51 | 312 | 0.0 | 0.0 | 0.00 | 0.02 | 0.00 | 81 | 1011.5 |
| 20260507101249 | 51 | 312 | 0.0 | 0.0 | 0.00 | 0.02 | 0.00 | 80 | 1011.4 |
| 20260507101206 | 51 | 312 | 0.0 | 0.0 | 0.00 | 0.02 | 0.00 | 80 | 1011.4 |
| 20260507095830 | 51 | 312 | 0.0 | 0.0 | 0.00 | 0.02 | 0.00 | 80 | 1011.3 |
| 20260507095029 | 51 | 312 | 0.0 | 0.0 | 0.00 | 0.02 | 0.00 | 80 | 1011.3 |
| 20260507094531 | 52 | 312 | 0.0 | 0.0 | 0.00 | 0.02 | 0.00 | 80 | 1011.2 |
| 20260507094031 | 52 | 312 | 0.0 | 0.0 | 0.00 | 0.02 | 0.00 | 80 | 1011.2 |
| 20260507093532 | 52 | 312 | 0.0 | 0.0 | 0.00 | 0.02 | 0.00 | 80 | 1011.1 |
| 20260507093030 | 52 | 312 | 0.0 | 0.0 | 0.00 | 0.02 | 0.00 | 80 | 1011.1 |
| 20260507092530 | 52 | 312 | 0.0 | 0.0 | 0.00 | 0.02 | 0.00 | 80 | 1011.1 |
| 20260507092029 | 52 | 312 | 0.0 | 0.0 | 0.00 | 0.02 | 0.00 | 80 | 1010.9 |
| 20260507091528 | 53 | 312 | 0.0 | 0.0 | 0.00 | 0.02 | 0.00 | 80 | 1010.9 |
| 20260507091031 | 53 | 312 | 0.0 | 0.0 | 0.00 | 0.02 | 0.00 | 80 | 1010.9 |
| 20260507090529 | 53 | 312 | 0.0 | 0.0 | 0.00 | 0.02 | 0.00 | 79 | 1010.8 |
| 20260507090328 | 53 | 312 | 0.0 | 1.0 | 0.00 | 0.02 | 0.00 | 79 | 1010.9 |
| 20260507085530 | 54 | 312 | 0.0 | 2.0 | 0.00 | 0.02 | 0.00 | 79 | 1010.7 |
| 20260507085029 | 54 | 312 | 0.0 | 2.0 | 0.00 | 0.02 | 0.00 | 78 | 1010.8 |
| 20260507084529 | 54 | 312 | 0.0 | 4.0 | 0.00 | 0.02 | 0.00 | 78 | 1010.7 |
| 20260507084032 | 55 | 312 | 0.0 | 4.0 | 0.00 | 0.02 | 0.00 | 77 | 1010.6 |
| 20260507083533 | 55 | 312 | 0.0 | 2.0 | 0.00 | 0.02 | 0.00 | 75 | 1010.6 |
| 20260507083033 | 55 | 312 | 0.0 | 2.0 | 0.00 | 0.02 | 0.00 | 74 | 1010.6 |
| 20260507082533 | 56 | 312 | 0.0 | 1.0 | 0.00 | 0.02 | 0.00 | 73 | 1010.6 |
| 20260507082032 | 56 | 312 | 0.0 | 0.0 | 0.00 | 0.02 | 0.00 | 71 | 1010.5 |
| 20260507081531 | 56 | 312 | 1.0 | 8.0 | 0.00 | 0.02 | 0.00 | 71 | 1010.5 |
| 20260507081029 | 56 | 312 | 2.0 | 8.0 | 0.00 | 0.02 | 0.00 | 71 | 1010.4 |
| 20260507080530 | 56 | 301 | 2.0 | 5.0 | 0.00 | 0.02 | 0.00 | 71 | 1010.5 |
| 20260507080030 | 56 | 291 | 2.0 | 4.0 | 0.00 | 0.02 | 0.00 | 71 | 1010.5 |
| 20260507075536 | 56 | 287 | 2.0 | 6.0 | 0.00 | 0.02 | 0.00 | 72 | 1010.6 |
| 20260507075030 | 55 | 285 | 2.0 | 7.0 | 0.00 | 0.02 | 0.00 | 74 | 1010.5 |
| 20260507074529 | 55 | 303 | 1.0 | 7.0 | 0.00 | 0.02 | 0.00 | 75 | 1010.5 |
| 20260507074029 | 55 | 308 | 1.0 | 4.0 | 0.00 | 0.02 | 0.00 | 75 | 1010.4 |
| 20260507073831 | 55 | 310 | 0.0 | 2.0 | 0.00 | 0.02 | 0.00 | 75 | 1010.4 |
| 20260507073030 | 55 | 309 | 0.0 | 5.0 | 0.00 | 0.02 | 0.00 | 75 | 1010.5 |
| 20260507072530 | 55 | 309 | 0.0 | 5.0 | 0.00 | 0.02 | 0.00 | 75 | 1010.3 |
| 20260507072030 | 55 | 296 | 0.0 | 1.0 | 0.00 | 0.02 | 0.00 | 75 | 1010.1 |
| 20260507071528 | 55 | 296 | 0.0 | 1.0 | 0.00 | 0.02 | 0.00 | 74 | 1010.2 |
| 20260507071030 | 55 | 295 | 0.0 | 1.0 | 0.00 | 0.02 | 0.00 | 74 | 1010.1 |
| 20260507070834 | 55 | 296 | 0.0 | 1.0 | 0.00 | 0.02 | 0.00 | 74 | 1010.1 |
| 20260507070334 | 55 | 296 | 0.0 | 1.0 | 0.00 | 0.02 | 0.00 | 74 | 1010.0 |
| 20260507065529 | 55 | 295 | 0.0 | 1.0 | 0.00 | 0.02 | 0.02 | 74 | 1010.1 |
| 20260507065029 | 56 | 295 | 0.0 | 2.0 | 0.00 | 0.02 | 0.02 | 74 | 1010.0 |
| 20260507064530 | 56 | 296 | 0.0 | 2.0 | 0.00 | 0.02 | 0.02 | 73 | 1010.0 |
| 20260507064032 | 56 | 296 | 0.0 | 2.0 | 0.00 | 0.02 | 0.02 | 73 | 1009.9 |
| 20260507063834 | 56 | 295 | 0.0 | 2.0 | 0.00 | 0.02 | 0.02 | 73 | 1009.9 |
| 20260507063030 | 56 | 297 | 0.0 | 0.0 | 0.00 | 0.02 | 0.02 | 73 | 1009.9 |
| 20260507062528 | 56 | 297 | 0.0 | 1.0 | 0.00 | 0.02 | 0.02 | 72 | 1009.9 |
| 20260507062029 | 56 | 297 | 0.0 | 2.0 | 0.00 | 0.02 | 0.02 | 72 | 1009.9 |
| 20260507061528 | 57 | 297 | 0.0 | 2.0 | 0.00 | 0.02 | 0.02 | 72 | 1009.8 |
| 20260507061145 | 57 | 297 | 0.0 | 2.0 | 0.00 | 0.02 | 0.02 | 69 | 1009.8 |
| 20260507061119 | 57 | 297 | 0.0 | 2.0 | 0.00 | 0.02 | 0.02 | 71 | 1009.7 |
| 20260507060030 | 58 | 297 | 0.0 | 2.0 | 0.00 | 0.02 | 0.02 | 68 | 1009.8 |
| 20260507055530 | 58 | 297 | 0.0 | 2.0 | 0.00 | 0.02 | 0.02 | 67 | 1009.7 |
| 20260507055127 | 59 | 297 | 0.0 | 1.0 | 0.00 | 0.02 | 0.02 | 64 | 1009.6 |
| 20260507055108 | 59 | 297 | 0.0 | 1.0 | 0.00 | 0.02 | 0.02 | 66 | 1009.7 |
| 20260507054033 | 60 | 297 | 0.0 | 1.0 | 0.00 | 0.02 | 0.02 | 62 | 1009.6 |
| 20260507053531 | 60 | 297 | 0.0 | 1.0 | 0.00 | 0.02 | 0.02 | 61 | 1009.6 |
| 20260507053034 | 61 | 297 | 0.0 | 1.0 | 0.00 | 0.02 | 0.02 | 60 | 1009.6 |
| 20260507052533 | 61 | 297 | 0.0 | 1.0 | 0.00 | 0.02 | 0.02 | 59 | 1009.6 |
| 20260507052032 | 61 | 297 | 1.0 | 4.0 | 0.00 | 0.02 | 0.02 | 59 | 1009.7 |
| 20260507051532 | 62 | 297 | 2.0 | 7.0 | 0.00 | 0.02 | 0.02 | 58 | 1009.7 |
| 20260507051032 | 62 | 284 | 3.0 | 8.0 | 0.00 | 0.02 | 0.02 | 58 | 1009.6 |
| 20260507050531 | 62 | 320 | 2.0 | 9.0 | 0.00 | 0.02 | 0.02 | 57 | 1009.6 |
| 20260507050032 | 62 | 285 | 2.0 | 9.0 | 0.00 | 0.02 | 0.02 | 58 | 1009.6 |
| 20260507045534 | 62 | 282 | 3.0 | 8.0 | 0.00 | 0.02 | 0.02 | 58 | 1009.6 |
| 20260507045146 | 61 | 291 | 3.0 | 10.0 | 0.00 | 0.02 | 0.02 | 61 | 1009.6 |
| 20260507045120 | 61 | 272 | 3.0 | 10.0 | 0.00 | 0.02 | 0.02 | 59 | 1009.6 |
| 20260507044033 | 60 | 308 | 3.0 | 8.0 | 0.00 | 0.02 | 0.02 | 62 | 1009.6 |
| 20260507043533 | 60 | 305 | 3.0 | 11.0 | 0.00 | 0.02 | 0.02 | 63 | 1009.7 |
| 20260507043033 | 60 | 281 | 3.0 | 11.0 | 0.00 | 0.02 | 0.02 | 65 | 1009.6 |
| 20260507042534 | 59 | 305 | 2.0 | 7.0 | 0.00 | 0.02 | 0.02 | 67 | 1009.6 |
| 20260507042032 | 59 | 274 | 2.0 | 7.0 | 0.00 | 0.02 | 0.02 | 69 | 1009.5 |
| 20260507041532 | 59 | 288 | 2.0 | 7.0 | 0.00 | 0.02 | 0.02 | 69 | 1009.5 |
| 20260507041033 | 59 | 293 | 2.0 | 8.0 | 0.00 | 0.02 | 0.02 | 69 | 1009.6 |
| 20260507040828 | 59 | 285 | 2.0 | 8.0 | 0.00 | 0.02 | 0.02 | 68 | 1009.6 |
| 20260507040033 | 60 | 322 | 1.0 | 4.0 | 0.00 | 0.02 | 0.02 | 67 | 1009.2 |
| 20260507035533 | 60 | 324 | 0.0 | 0.0 | 0.00 | 0.02 | 0.02 | 65 | 1008.4 |
| 20260507035032 | 61 | 324 | 0.0 | 0.0 | 0.00 | 0.02 | 0.02 | 65 | 1008.4 |
| 20260507034532 | 61 | 324 | 0.0 | 0.0 | 0.00 | 0.02 | 0.02 | 64 | 1008.4 |
| 20260507034035 | 62 | 324 | 0.0 | 0.0 | 0.00 | 0.02 | 0.02 | 63 | 1008.3 |
| 20260507033533 | 62 | 324 | 0.0 | 0.0 | 0.00 | 0.02 | 0.02 | 62 | 1008.2 |
| 20260507033324 | 62 | 324 | 0.0 | 0.0 | 0.00 | 0.02 | 0.02 | 61 | 1008.2 |
| 20260507032826 | 63 | 324 | 0.0 | 0.0 | 0.00 | 0.02 | 0.02 | 60 | 1008.2 |
| 20260507032033 | 64 | 324 | 0.0 | 0.0 | 0.00 | 0.02 | 0.02 | 60 | 1008.2 |
| 20260507031533 | 64 | 324 | 0.0 | 0.0 | 0.00 | 0.02 | 0.02 | 59 | 1008.3 |
| 20260507031033 | 65 | 324 | 0.0 | 1.0 | 0.00 | 0.02 | 0.02 | 58 | 1008.3 |
| 20260507030533 | 65 | 324 | 0.0 | 1.0 | 0.00 | 0.02 | 0.02 | 55 | 1008.3 |
| 20260507030031 | 65 | 324 | 0.0 | 0.0 | 0.00 | 0.02 | 0.02 | 54 | 1008.2 |
| 20260507025826 | 66 | 324 | 0.0 | 0.0 | 0.00 | 0.02 | 0.02 | 55 | 1008.1 |
| 20260507025034 | 66 | 324 | 0.0 | 0.0 | 0.00 | 0.02 | 0.02 | 54 | 1008.1 |
| 20260507024531 | 66 | 324 | 0.0 | 1.0 | 0.00 | 0.02 | 0.02 | 53 | 1008.2 |
| 20260507024033 | 67 | 324 | 0.0 | 1.0 | 0.00 | 0.02 | 0.02 | 52 | 1008.1 |
| 20260507023533 | 67 | 324 | 0.0 | 3.0 | 0.00 | 0.02 | 0.02 | 51 | 1008.2 |
| 20260507023032 | 67 | 324 | 1.0 | 3.0 | 0.00 | 0.02 | 0.02 | 50 | 1008.2 |
| 20260507022532 | 68 | 302 | 1.0 | 5.0 | 0.00 | 0.02 | 0.02 | 51 | 1008.2 |
| 20260507022033 | 68 | 302 | 1.0 | 5.0 | 0.00 | 0.02 | 0.02 | 50 | 1008.3 |
| 20260507021535 | 68 | 302 | 1.0 | 5.0 | 0.00 | 0.02 | 0.02 | 49 | 1008.3 |
| 20260507021034 | 68 | 304 | 0.0 | 2.0 | 0.00 | 0.02 | 0.02 | 48 | 1008.2 |
| 20260507020532 | 68 | 304 | 1.0 | 4.0 | 0.00 | 0.02 | 0.02 | 49 | 1008.2 |
| 20260507020028 | 68 | 304 | 2.0 | 4.0 | 0.00 | 0.02 | 0.02 | 48 | 1008.2 |
| 20260507015529 | 68 | 286 | 2.0 | 5.0 | 0.00 | 0.02 | 0.02 | 49 | 1008.4 |
| 20260507015332 | 68 | 286 | 1.0 | 7.0 | 0.00 | 0.02 | 0.02 | 49 | 1008.4 |
| 20260507014638 | 67 | 269 | 1.0 | 4.0 | 0.00 | 0.02 | 0.02 | 50 | 1008.5 |
| 20260507014615 | 67 | 287 | 1.0 | 7.0 | 0.00 | 0.02 | 0.02 | 50 | 1008.5 |
| 20260507013530 | 68 | 268 | 1.0 | 4.0 | 0.00 | 0.02 | 0.02 | 49 | 1008.5 |
| 20260507013029 | 68 | 247 | 1.0 | 3.0 | 0.00 | 0.02 | 0.02 | 49 | 1008.6 |
| 20260507012529 | 68 | 247 | 1.0 | 4.0 | 0.00 | 0.02 | 0.02 | 50 | 1008.7 |
| 20260507012030 | 68 | 241 | 1.0 | 4.0 | 0.00 | 0.02 | 0.02 | 51 | 1008.8 |
| 20260507011550 | 68 | 75 | 1.0 | 6.0 | 0.00 | 0.02 | 0.02 | 51 | 1008.5 |
| 20260507011541 | 68 | 74 | 1.0 | 6.0 | 0.00 | 0.02 | 0.02 | 52 | 1008.6 |
| 20260507010831 | 69 | 122 | 1.0 | 5.0 | 0.00 | 0.02 | 0.02 | 46 | 1008.8 |
| 20260507010333 | 70 | 209 | 2.0 | 11.0 | 0.00 | 0.02 | 0.02 | 44 | 1009.0 |
| 20260507005530 | 70 | 236 | 3.0 | 11.0 | 0.00 | 0.02 | 0.02 | 38 | 1009.2 |
| 20260507005030 | 71 | 126 | 4.0 | 11.0 | 0.00 | 0.02 | 0.02 | 36 | 1008.8 |
| 20260507004530 | 71 | 320 | 4.0 | 12.0 | 0.00 | 0.02 | 0.02 | 40 | 1009.1 |
| 20260507004028 | 71 | 264 | 2.0 | 12.0 | 0.00 | 0.02 | 0.02 | 42 | 1009.0 |
| 20260507003528 | 72 | 90 | 1.0 | 3.0 | 0.00 | 0.02 | 0.02 | 41 | 1008.7 |
| 20260507003331 | 73 | 91 | 0.0 | 3.0 | 0.00 | 0.02 | 0.02 | 40 | 1008.3 |
| 20260507002529 | 73 | 91 | 0.0 | 2.0 | 0.00 | 0.02 | 0.02 | 40 | 1007.9 |
| 20260507002334 | 73 | 91 | 0.0 | 1.0 | 0.00 | 0.02 | 0.02 | 39 | 1007.7 |
| 20260507001929 | 74 | 91 | 0.0 | 2.0 | 0.00 | 0.02 | 0.02 | 38 | 1007.7 |
| 20260507001924 | 74 | 91 | 0.0 | 1.0 | 0.00 | 0.02 | 0.02 | 39 | 1007.7 |
| 20260507000530 | 74 | 91 | 0.0 | 2.0 | 0.00 | 0.02 | 0.02 | 37 | 1007.8 |
| 20260507000030 | 74 | 91 | 0.0 | 1.0 | 0.00 | 0.02 | 0.02 | 36 | 1007.8 |
| 20260506235828 | 74 | 91 | 0.0 | 0.0 | 0.00 | 0.02 | 0.02 | 37 | 1007.9 |
| 20260506235028 | 74 | 91 | 0.0 | 1.0 | 0.00 | 0.02 | 0.02 | 37 | 1007.9 |
| 20260506234530 | 74 | 91 | 0.0 | 2.0 | 0.00 | 0.02 | 0.02 | 36 | 1007.9 |
| 20260506234030 | 74 | 91 | 0.0 | 2.0 | 0.00 | 0.02 | 0.02 | 35 | 1008.2 |
| 20260506233531 | 74 | 91 | 0.0 | 2.0 | 0.00 | 0.02 | 0.02 | 35 | 1008.2 |
| 20260506233030 | 74 | 91 | 0.0 | 2.0 | 0.00 | 0.02 | 0.02 | 36 | 1008.2 |
| 20260506232639 | 74 | 93 | 1.0 | 4.0 | 0.00 | 0.02 | 0.02 | 36 | 1008.3 |
| 20260506232616 | 74 | 91 | 1.0 | 4.0 | 0.00 | 0.02 | 0.02 | 36 | 1008.3 |
| 20260506231530 | 74 | 130 | 1.0 | 4.0 | 0.00 | 0.02 | 0.02 | 36 | 1008.4 |
| 20260506231029 | 74 | 130 | 1.0 | 4.0 | 0.00 | 0.02 | 0.02 | 36 | 1008.4 |
| 20260506230523 | 74 | 201 | 1.0 | 4.0 | 0.00 | 0.02 | 0.02 | 36 | 1008.5 |
| 20260506230023 | 74 | 201 | 1.0 | 4.0 | 0.00 | 0.02 | 0.02 | 35 | 1008.6 |
| 20260506225523 | 74 | 214 | 1.0 | 4.0 | 0.00 | 0.02 | 0.02 | 35 | 1008.7 |
| 20260506225022 | 74 | 219 | 1.0 | 4.0 | 0.00 | 0.02 | 0.02 | 37 | 1008.8 |
| 20260506224522 | 74 | 215 | 1.0 | 4.0 | 0.00 | 0.02 | 0.02 | 38 | 1008.8 |
| 20260506224023 | 74 | 214 | 1.0 | 4.0 | 0.00 | 0.02 | 0.02 | 36 | 1008.9 |
| 20260506223521 | 74 | 230 | 1.0 | 3.0 | 0.00 | 0.02 | 0.02 | 36 | 1009.1 |
| 20260506223323 | 74 | 233 | 1.0 | 3.0 | 0.00 | 0.02 | 0.02 | 35 | 1009.1 |
| 20260506222520 | 74 | 232 | 1.0 | 4.0 | 0.00 | 0.02 | 0.02 | 36 | 1009.1 |
| 20260506222322 | 74 | 225 | 1.0 | 4.0 | 0.00 | 0.02 | 0.02 | 37 | 1009.2 |
| 20260506221640 | 73 | 90 | 1.0 | 3.0 | 0.00 | 0.02 | 0.02 | 36 | 1009.4 |
| 20260506221612 | 73 | 89 | 1.0 | 3.0 | 0.00 | 0.02 | 0.02 | 37 | 1009.2 |
| 20260506220823 | 72 | 86 | 1.0 | 6.0 | 0.00 | 0.02 | 0.02 | 36 | 1009.5 |
| 20260506220020 | 72 | 87 | 1.0 | 6.0 | 0.00 | 0.02 | 0.02 | 35 | 1009.6 |
| 20260506215525 | 72 | 97 | 1.0 | 3.0 | 0.00 | 0.02 | 0.02 | 37 | 1009.6 |
| 20260506215019 | 72 | 97 | 1.0 | 3.0 | 0.00 | 0.02 | 0.02 | 36 | 1009.6 |
| 20260506214512 | 72 | 97 | 1.0 | 4.0 | 0.00 | 0.02 | 0.02 | 35 | 1009.7 |
| 20260506214007 | 72 | 97 | 1.0 | 4.0 | 0.00 | 0.02 | 0.02 | 35 | 1009.9 |
| 20260506213504 | 72 | 121 | 0.0 | 4.0 | 0.00 | 0.02 | 0.02 | 37 | 1009.9 |
| 20260506213004 | 71 | 77 | 1.0 | 3.0 | 0.00 | 0.02 | 0.02 | 36 | 1009.9 |
| 20260506212805 | 71 | 77 | 1.0 | 5.0 | 0.00 | 0.02 | 0.02 | 36 | 1010.1 |
| 20260506212006 | 71 | 75 | 2.0 | 6.0 | 0.00 | 0.02 | 0.02 | 35 | 1010.1 |
| 20260506211503 | 71 | 147 | 1.0 | 6.0 | 0.00 | 0.02 | 0.02 | 35 | 1010.2 |
| 20260506211004 | 71 | 206 | 1.0 | 4.0 | 0.00 | 0.02 | 0.02 | 35 | 1010.4 |
| 20260506210504 | 70 | 258 | 1.0 | 4.0 | 0.00 | 0.02 | 0.02 | 36 | 1010.5 |
| 20260506210005 | 70 | 256 | 1.0 | 4.0 | 0.00 | 0.02 | 0.02 | 36 | 1010.5 |
| 20260506205504 | 70 | 253 | 1.0 | 4.0 | 0.00 | 0.02 | 0.02 | 37 | 1010.6 |
| 20260506205006 | 70 | 255 | 1.0 | 3.0 | 0.00 | 0.02 | 0.02 | 36 | 1010.8 |
| 20260506204759 | 70 | 255 | 1.0 | 6.0 | 0.00 | 0.02 | 0.02 | 36 | 1010.8 |
| 20260506204309 | 70 | 255 | 1.0 | 6.0 | 0.00 | 0.02 | 0.02 | 37 | 1010.9 |
| 20260506203611 | 69 | 177 | 1.0 | 5.0 | 0.00 | 0.02 | 0.02 | 37 | 1010.8 |
| 20260506203545 | 69 | 177 | 1.0 | 3.0 | 0.00 | 0.02 | 0.02 | 38 | 1010.9 |
| 20260506202503 | 69 | 177 | 1.0 | 5.0 | 0.00 | 0.02 | 0.02 | 37 | 1010.8 |
| 20260506202005 | 69 | 174 | 1.0 | 5.0 | 0.00 | 0.02 | 0.02 | 36 | 1010.8 |
| 20260506201506 | 69 | 172 | 1.0 | 5.0 | 0.00 | 0.02 | 0.02 | 35 | 1011.1 |
| 20260506201006 | 69 | 174 | 1.0 | 3.0 | 0.00 | 0.02 | 0.02 | 36 | 1011.1 |
| 20260506200504 | 69 | 172 | 1.0 | 6.0 | 0.00 | 0.02 | 0.02 | 38 | 1011.2 |
| 20260506200311 | 68 | 171 | 2.0 | 6.0 | 0.00 | 0.02 | 0.02 | 37 | 1011.2 |
| 20260506195813 | 68 | 109 | 2.0 | 5.0 | 0.00 | 0.02 | 0.02 | 37 | 1011.4 |
| 20260506195006 | 68 | 132 | 1.0 | 5.0 | 0.00 | 0.02 | 0.02 | 38 | 1011.4 |
| 20260506194502 | 68 | 68 | 1.0 | 5.0 | 0.00 | 0.02 | 0.02 | 37 | 1011.4 |
| 20260506194001 | 67 | 68 | 2.0 | 5.0 | 0.00 | 0.02 | 0.02 | 40 | 1011.6 |
| 20260506193502 | 66 | 71 | 2.0 | 5.0 | 0.00 | 0.02 | 0.02 | 39 | 1011.7 |
| 20260506193002 | 66 | 75 | 2.0 | 6.0 | 0.00 | 0.02 | 0.02 | 42 | 1011.7 |
| 20260506192504 | 65 | 177 | 2.0 | 6.0 | 0.00 | 0.02 | 0.02 | 39 | 1011.7 |
| 20260506192000 | 65 | 120 | 2.0 | 6.0 | 0.00 | 0.02 | 0.02 | 41 | 1011.8 |
| 20260506191502 | 64 | 110 | 2.0 | 6.0 | 0.00 | 0.02 | 0.02 | 41 | 1011.8 |
| 20260506191309 | 64 | 110 | 1.0 | 6.0 | 0.00 | 0.02 | 0.02 | 43 | 1011.8 |
| 20260506190805 | 63 | 109 | 1.0 | 4.0 | 0.00 | 0.02 | 0.02 | 42 | 1011.9 |
| 20260506190001 | 63 | 108 | 1.0 | 3.0 | 0.00 | 0.02 | 0.02 | 42 | 1011.9 |
| 20260506185501 | 63 | 108 | 1.0 | 3.0 | 0.00 | 0.02 | 0.02 | 43 | 1012.0 |
| 20260506185002 | 63 | 108 | 0.0 | 3.0 | 0.00 | 0.02 | 0.02 | 43 | 1012.1 |
| 20260506184553 | 63 | 107 | 0.0 | 3.0 | 0.02 | 0.02 | 0.02 | 44 | 1012.2 |
| 20260506183916 | 63 | 115 | 1.0 | 6.0 | 0.02 | 0.02 | 0.02 | 39 | 1012.5 |
| 20260506183911 | 63 | 106 | 2.0 | 4.0 | 0.02 | 0.02 | 0.02 | 40 | 1012.4 |
| 20260506182502 | 63 | 77 | 1.0 | 6.0 | 0.02 | 0.02 | 0.02 | 40 | 1012.4 |
| 20260506182001 | 63 | 156 | 2.0 | 9.0 | 0.02 | 0.02 | 0.02 | 39 | 1012.4 |
| 20260506181502 | 64 | 156 | 2.0 | 9.0 | 0.02 | 0.02 | 0.02 | 40 | 1012.4 |
| 20260506181003 | 64 | 68 | 1.0 | 4.0 | 0.02 | 0.02 | 0.02 | 38 | 1012.5 |
| 20260506180501 | 63 | 68 | 2.0 | 5.0 | 0.02 | 0.02 | 0.02 | 39 | 1012.8 |
| 20260506180001 | 63 | 133 | 1.0 | 8.0 | 0.02 | 0.02 | 0.02 | 38 | 1012.9 |
| 20260506175501 | 63 | 111 | 2.0 | 8.0 | 0.02 | 0.02 | 0.02 | 39 | 1013.0 |
| 20260506175002 | 62 | 66 | 1.0 | 5.0 | 0.02 | 0.02 | 0.02 | 41 | 1013.0 |
| 20260506174502 | 62 | 195 | 1.0 | 3.0 | 0.00 | 0.00 | 0.00 | 42 | 1013.1 |
| 20260506174005 | 62 | 171 | 0.0 | 3.0 | 0.00 | 0.00 | 0.00 | 41 | 1013.3 |
| 20260506173549 | 62 | 152 | 0.0 | 5.0 | 0.00 | 0.00 | 0.00 | 42 | 1013.4 |
| 20260506172808 | 60 | 159 | 0.0 | 2.0 | 0.00 | 0.00 | 0.00 | 42 | 1013.6 |
| 20260506172005 | 60 | 159 | 0.0 | 2.0 | 0.00 | 0.00 | 0.00 | 40 | 1013.6 |
| 20260506171758 | 60 | 159 | 0.0 | 2.0 | 0.00 | 0.00 | 0.00 | 42 | 1013.7 |
| 20260506171008 | 60 | 159 | 0.0 | 2.0 | 0.00 | 0.00 | 0.00 | 42 | 1013.7 |
| 20260506170504 | 59 | 159 | 1.0 | 4.0 | 0.00 | 0.00 | 0.00 | 44 | 1013.7 |
| 20260506170310 | 58 | 159 | 1.0 | 4.0 | 0.00 | 0.00 | 0.00 | 45 | 1013.7 |
| 20260506165507 | 58 | 161 | 0.0 | 4.0 | 0.00 | 0.00 | 0.00 | 45 | 1013.8 |
| 20260506165005 | 57 | 160 | 1.0 | 4.0 | 0.00 | 0.00 | 0.00 | 45 | 1014.0 |
| 20260506164505 | 57 | 161 | 1.0 | 4.0 | 0.00 | 0.00 | 0.00 | 45 | 1014.0 |
| 20260506164005 | 57 | 161 | 0.0 | 4.0 | 0.00 | 0.00 | 0.00 | 45 | 1014.2 |
| 20260506163618 | 57 | 160 | 0.0 | 4.0 | 0.00 | 0.00 | 0.00 | 45 | 1014.3 |
| 20260506163553 | 57 | 161 | 0.0 | 2.0 | 0.00 | 0.00 | 0.00 | 45 | 1014.3 |
| 20260506162502 | 57 | 160 | 0.0 | 4.0 | 0.00 | 0.00 | 0.00 | 45 | 1014.3 |
| 20260506162003 | 57 | 160 | 0.0 | 2.0 | 0.00 | 0.00 | 0.00 | 46 | 1014.5 |
| 20260506161500 | 57 | 160 | 0.0 | 4.0 | 0.00 | 0.00 | 0.00 | 47 | 1014.5 |
| 20260506161002 | 56 | 160 | 1.0 | 4.0 | 0.00 | 0.00 | 0.00 | 45 | 1014.6 |
| 20260506160502 | 56 | 156 | 1.0 | 3.0 | 0.00 | 0.00 | 0.00 | 44 | 1014.5 |
| 20260506160002 | 56 | 155 | 0.0 | 3.0 | 0.00 | 0.00 | 0.00 | 45 | 1014.6 |
| 20260506155502 | 56 | 155 | 1.0 | 4.0 | 0.00 | 0.00 | 0.00 | 46 | 1014.6 |
| 20260506155001 | 56 | 154 | 1.0 | 4.0 | 0.00 | 0.00 | 0.00 | 45 | 1014.5 |
| 20260506154502 | 55 | 200 | 0.0 | 3.0 | 0.00 | 0.00 | 0.00 | 47 | 1014.5 |
| 20260506154002 | 55 | 200 | 0.0 | 4.0 | 0.00 | 0.00 | 0.00 | 49 | 1014.6 |
| 20260506153502 | 54 | 201 | 0.0 | 4.0 | 0.00 | 0.00 | 0.00 | 52 | 1014.7 |
| 20260506153001 | 54 | 199 | 0.0 | 1.0 | 0.00 | 0.00 | 0.00 | 53 | 1014.7 |
| 20260506152501 | 54 | 199 | 0.0 | 2.0 | 0.00 | 0.00 | 0.00 | 53 | 1014.7 |
| 20260506152259 | 53 | 199 | 0.0 | 2.0 | 0.00 | 0.00 | 0.00 | 54 | 1014.7 |
| 20260506151501 | 53 | 198 | 0.0 | 0.0 | 0.00 | 0.00 | 0.00 | 55 | 1014.7 |
| 20260506151302 | 52 | 198 | 0.0 | 0.0 | 0.00 | 0.00 | 0.00 | 55 | 1014.6 |
| 20260506150501 | 51 | 199 | 0.0 | 0.0 | 0.00 | 0.00 | 0.00 | 59 | 1014.6 |
| 20260506150002 | 50 | 199 | 0.0 | 0.0 | 0.00 | 0.00 | 0.00 | 59 | 1014.7 |
| 20260506145500 | 50 | 199 | 0.0 | 2.0 | 0.00 | 0.00 | 0.00 | 60 | 1014.8 |
| 20260506145000 | 49 | 199 | 0.0 | 2.0 | 0.00 | 0.00 | 0.00 | 61 | 1014.8 |
| 20260506144457 | 49 | 198 | 0.0 | 0.0 | 0.00 | 0.00 | 0.00 | 60 | 1014.7 |
| 20260506143957 | 48 | 198 | 0.0 | 0.0 | 0.00 | 0.00 | 0.00 | 59 | 1014.7 |
| 20260506143457 | 48 | 199 | 0.0 | 0.0 | 0.00 | 0.00 | 0.00 | 60 | 1014.8 |
| 20260506142958 | 48 | 199 | 0.0 | 0.0 | 0.00 | 0.00 | 0.00 | 62 | 1014.8 |
| 20260506142458 | 48 | 198 | 0.0 | 0.0 | 0.00 | 0.00 | 0.00 | 61 | 1014.8 |
| 20260506141955 | 47 | 199 | 0.0 | 0.0 | 0.00 | 0.00 | 0.00 | 60 | 1014.8 |
| 20260506141456 | 47 | 198 | 0.0 | 0.0 | 0.00 | 0.00 | 0.00 | 61 | 1014.8 |
| 20260506140955 | 47 | 198 | 0.0 | 1.0 | 0.00 | 0.00 | 0.00 | 60 | 1014.8 |
| 20260506140457 | 47 | 198 | 0.0 | 1.0 | 0.00 | 0.00 | 0.00 | 60 | 1014.8 |
| 20260506135953 | 47 | 199 | 0.0 | 2.0 | 0.00 | 0.00 | 0.00 | 62 | 1014.9 |
| 20260506135453 | 46 | 198 | 0.0 | 2.0 | 0.00 | 0.00 | 0.00 | 62 | 1014.8 |
| 20260506134954 | 46 | 199 | 0.0 | 0.0 | 0.00 | 0.00 | 0.00 | 64 | 1014.8 |
| 20260506134452 | 46 | 199 | 0.0 | 0.0 | 0.00 | 0.00 | 0.00 | 64 | 1014.8 |
| 20260506134248 | 46 | 199 | 0.0 | 1.0 | 0.00 | 0.00 | 0.00 | 64 | 1014.9 |
| 20260506133451 | 46 | 199 | 0.0 | 1.0 | 0.00 | 0.00 | 0.00 | 65 | 1014.8 |
| 20260506133247 | 46 | 199 | 0.0 | 0.0 | 0.00 | 0.00 | 0.00 | 65 | 1014.8 |
| 20260506132457 | 46 | 199 | 0.0 | 0.0 | 0.00 | 0.00 | 0.00 | 65 | 1014.7 |
| 20260506131951 | 46 | 199 | 0.0 | 0.0 | 0.00 | 0.00 | 0.00 | 65 | 1014.8 |
| 20260506131450 | 46 | 199 | 0.0 | 0.0 | 0.00 | 0.00 | 0.00 | 65 | 1014.8 |
| 20260506130946 | 46 | 199 | 0.0 | 0.0 | 0.00 | 0.00 | 0.00 | 65 | 1014.8 |
| 20260506130446 | 46 | 199 | 0.0 | 3.0 | 0.00 | 0.00 | 0.00 | 64 | 1014.8 |
| 20260506125948 | 46 | 199 | 0.0 | 3.0 | 0.00 | 0.00 | 0.00 | 64 | 1014.8 |
| 20260506125446 | 46 | 199 | 0.0 | 3.0 | 0.00 | 0.00 | 0.00 | 65 | 1014.7 |
| 20260506124948 | 46 | 197 | 0.0 | 0.0 | 0.00 | 0.00 | 0.00 | 64 | 1014.8 |
| 20260506124445 | 46 | 197 | 0.0 | 0.0 | 0.00 | 0.00 | 0.00 | 64 | 1014.6 |
| 20260506123946 | 46 | 197 | 0.0 | 0.0 | 0.00 | 0.00 | 0.00 | 63 | 1014.6 |
| 20260506123446 | 46 | 197 | 0.0 | 0.0 | 0.00 | 0.00 | 0.00 | 62 | 1014.6 |
| 20260506122942 | 46 | 197 | 0.0 | 0.0 | 0.00 | 0.00 | 0.00 | 62 | 1014.5 |
| 20260506122444 | 47 | 197 | 0.0 | 0.0 | 0.00 | 0.00 | 0.00 | 62 | 1014.5 |
| 20260506121938 | 47 | 197 | 0.0 | 0.0 | 0.00 | 0.00 | 0.00 | 61 | 1014.6 |
| 20260506121737 | 47 | 197 | 0.0 | 0.0 | 0.00 | 0.00 | 0.00 | 61 | 1014.6 |
| 20260506121237 | 47 | 197 | 0.0 | 1.0 | 0.00 | 0.00 | 0.00 | 61 | 1014.3 |
| 20260506120438 | 47 | 197 | 0.0 | 1.0 | 0.00 | 0.00 | 0.00 | 61 | 1014.3 |
| 20260506120332 | 47 | 197 | 0.0 | 2.0 | 0.00 | 0.00 | 0.00 | 62 | 1014.3 |
| 20260506120327 | 47 | 197 | 0.0 | 0.0 | 0.00 | 0.00 | 0.00 | 61 | 1014.2 |
| 20260506114933 | 47 | 197 | 0.0 | 2.0 | 0.00 | 0.00 | 0.00 | 61 | 1014.3 |